星链-1039 (STARLINK-1039 )

导读

STARLINK-1039是美国SpaceX公司星链星座中的一员,于2019年11月11日发射升空。星链计划是全球规模最大的低轨卫星互联网项目,旨在为全球提供高速低延迟宽带服务。该卫星运行在近地轨道,属于星链第一代卫星,支撑星座初期组网,助力实现全球范围互联网覆盖,尤其服务偏远地区及特殊场景联网需求,推动了卫星互联网商业化发展。

Basic Information
目录编号:
44744
目录名称:
STARLINK-1039
国际标识:
2019-074AH
轨道中心:
EARTH
卫星名称:
星链-1039
卫星全名:
星链-1039 (STARLINK-1039 )
卫星状态:
在轨 (已飞行2406 天)
发射日期:
2019-11-11 UTC
国别 :
美国 (US)
星等 :
--
Orbit Information
数据来源 国际轨道数据 AOE轨道数据
星历时间 2026-06-12T13:16:08+0800
18小时前
查看轨道信息
2026-06-11T05:00:00+0800
2天前
查看轨道信息
半长轴 6857.294km 6857.591km
偏心率 0.0003984 0.0003933
轨道倾角 53.056° 53.056°
近地点辐角 54.676° 53.757°
升交点赤经 138.130° 144.378°
平近点角 305.461° 102.133°
近地点 476.425km 476.756km
远地点 481.889km 482.152km
周期 94.187分钟 94.193分钟
每日圈数 15.288808 15.287815
Detailed Information
固有亮度:
5
最大亮度:
2.5
卫星平台:
Starlink V1.0
覆盖范围:
全球
运营商:
太空探索技术公司
运营商所在国:
美国
制造商(研发单位):
太空探索技术公司
制造商所在国:
美国
使用方式:
暂无
Satellite Introduction
星链(Starlink)计划是由太空探索技术公司(SpaceX)提出的一个巨型低轨卫星互联网星座项目,计划在2019年至2024年间在太空搭建由约1.2万颗卫星组成的“星链”网络,其中1584颗将部署在地球上空550千米处的近地轨道,并从2020年开始工作。该卫星仍在工作。
2D Orbit Map
3D Orbit Map
Orbit Altitude Analysis Chart
Orbit Inclination Analysis Chart
Orbit Comprehensive Analysis Chart
View Comprehensive Chart